Location: Mahannah Oil Field
(37.4664°N, 96.6003°W)
Time: 00:18:44
(UTC+00:00)

A-11 Canister half - Pass Details

Date: 25 January 2021
Orbit: 1525 x 1684 km, 47.3° (Epoch: 03 March)

Event Time Altitude Azimuth Distance (km) Brightness Sun altitude
Rises 04:38:30 0° 297° (WNW) 4,807 12.1 -57.9°
Reaches altitude 10° 04:41:59 10° 289° (WNW) 3,842 11.4 -58.5°
Enters shadow 04:44:25 18° 279° (W) 3,251 10.9 -58.9°
